When you browse on this site, cookies collect data to enhance your experience and personalize the content and advertising you see.
Visit our Privacy Policy to learn more. By continuing to use the site, you agree to this use of cookies and data.
  • In France
  • List of Countries
  • For 7 days
  • Water Temperature
  • Satellite Maps
  • Weather Map
  • Weather Widgets
  • user-avatar
    Login

    Hourly Weather Gabrovo

    Today, 25 May, Saturday

    Time Temperature Precipitation Wind Pressure Humidity
    00:00 +9°C° 0 mm 2 mps 697 mmHg 88%
    01:00 +10°C° 0 mm 1 mps 697 mmHg 89%
    02:00 +9°C° 0 mm 1 mps 697 mmHg 90%
    03:00 +9°C° 0 mm 1 mps 697 mmHg 90%
    04:00 +9°C° 0 mm 1 mps 697 mmHg 89%
    05:00 +9°C° 0 mm 1 mps 697 mmHg 89%
    06:00 +10°C° 0 mm 2 mps 698 mmHg 83%
    07:00 +13°C° 0 mm 2 mps 699 mmHg 77%
    08:00 +15°C° 0 mm 2 mps 699 mmHg 72%
    09:00 +16°C° 0.5 mm 2 mps 699 mmHg 71%
    10:00 +17°C° 0.5 mm 2 mps 699 mmHg 70%
    11:00 +17°C° 0.5 mm 2 mps 699 mmHg 69%
    12:00 +18°C° 1.4 mm 2 mps 699 mmHg 68%
    13:00 +19°C° 1.4 mm 2 mps 700 mmHg 66%
    14:00 +19°C° 1.4 mm 2 mps 700 mmHg 65%
    15:00 +19°C° 1.1 mm 2 mps 700 mmHg 66%
    16:00 +19°C° 1.1 mm 2 mps 700 mmHg 66%
    17:00 +19°C° 1.1 mm 2 mps 700 mmHg 66%
    18:00 +18°C° 0.4 mm 2 mps 699 mmHg 71%
    19:00 +16°C° 0.4 mm 1 mps 699 mmHg 77%
    20:00 +14°C° 0.4 mm 1 mps 699 mmHg 82%
    21:00 +13°C° 0 mm 1 mps 699 mmHg 83%
    22:00 +13°C° 0 mm 1 mps 700 mmHg 84%
    23:00 +12°C° 0 mm 1 mps 700 mmHg 86%

    Tomorrow, 26 May, Sunday

    Time Temperature Precipitation Wind Pressure Humidity
    00:00 +12°C° 0 mm 1 mps 700 mmHg 86%
    01:00 +12°C° 0 mm 1 mps 700 mmHg 86%
    02:00 +11°C° 0 mm 1 mps 700 mmHg 86%
    03:00 +11°C° 0 mm 1 mps 700 mmHg 86%
    04:00 +11°C° 0 mm 1 mps 700 mmHg 86%
    05:00 +11°C° 0 mm 1 mps 700 mmHg 86%
    06:00 +13°C° 0 mm 1 mps 701 mmHg 80%
    07:00 +14°C° 0 mm 0 mps 701 mmHg 74%
    08:00 +16°C° 0 mm 0 mps 702 mmHg 69%
    09:00 +20°C° 0 mm 1 mps 702 mmHg 63%
    10:00 +22°C° 0 mm 1 mps 703 mmHg 57%
    11:00 +23°C° 0 mm 1 mps 703 mmHg 51%
    12:00 +24°C° 0 mm 1 mps 703 mmHg 49%
    13:00 +24°C° 0 mm 1 mps 703 mmHg 47%
    14:00 +25°C° 0 mm 2 mps 703 mmHg 45%
    15:00 +24°C° 0 mm 2 mps 703 mmHg 47%
    16:00 +24°C° 0 mm 2 mps 702 mmHg 49%
    17:00 +24°C° 0 mm 2 mps 702 mmHg 51%
    18:00 +21°C° 0 mm 2 mps 702 mmHg 59%
    19:00 +20°C° 0 mm 1 mps 702 mmHg 67%
    20:00 +18°C° 0 mm 1 mps 701 mmHg 75%
    21:00 +16°C° 0 mm 1 mps 702 mmHg 77%
    22:00 +16°C° 0 mm 1 mps 702 mmHg 80%
    23:00 +15°C° 0 mm 1 mps 702 mmHg 83%

    Day after tomorrow, 27 May, Monday

    Time Temperature Precipitation Wind Pressure Humidity
    00:00 +15°C° 0 mm 1 mps 702 mmHg 85%
    01:00 +14°C° 0 mm 1 mps 702 mmHg 86%
    02:00 +14°C° 0 mm 1 mps 702 mmHg 88%
    03:00 +14°C° 0 mm 1 mps 702 mmHg 89%
    04:00 +13°C° 0 mm 1 mps 701 mmHg 89%
    05:00 +13°C° 0 mm 1 mps 701 mmHg 90%
    06:00 +15°C° 0 mm 1 mps 702 mmHg 84%
    07:00 +18°C° 0 mm 1 mps 702 mmHg 77%
    08:00 +18°C° 0 mm 2 mps 703 mmHg 71%
    09:00 +20°C° 0 mm 2 mps 703 mmHg 65%
    10:00 +21°C° 0 mm 3 mps 703 mmHg 59%
    11:00 +22°C° 0 mm 3 mps 703 mmHg 54%
    12:00 +24°C° 0 mm 3 mps 703 mmHg 53%
    13:00 +25°C° 0 mm 4 mps 703 mmHg 52%
    14:00 +25°C° 0 mm 4 mps 702 mmHg 51%
    15:00 +25°C° 0 mm 4 mps 702 mmHg 52%
    16:00 +25°C° 0 mm 4 mps 702 mmHg 54%
    17:00 +25°C° 0 mm 4 mps 701 mmHg 55%
    18:00 +22°C° 0 mm 3 mps 701 mmHg 60%
    19:00 +20°C° 0 mm 3 mps 701 mmHg 65%
    20:00 +18°C° 0 mm 2 mps 701 mmHg 70%
    21:00 +17°C° 0 mm 2 mps 701 mmHg 75%
    22:00 +16°C° 0 mm 3 mps 700 mmHg 80%
    23:00 +14°C° 0 mm 3 mps 700 mmHg 84%

    28 May, Tuesday

    Time Temperature Precipitation Wind Pressure Humidity
    00:00 +14°C° 0 mm 2 mps 700 mmHg 85%
    01:00 +14°C° 0 mm 2 mps 700 mmHg 86%
    02:00 +13°C° 0 mm 2 mps 699 mmHg 87%
    03:00 +13°C° 0 mm 2 mps 699 mmHg 84%
    04:00 +12°C° 0 mm 2 mps 699 mmHg 81%
    05:00 +12°C° 0 mm 2 mps 698 mmHg 79%
    06:00 +14°C° 0 mm 2 mps 699 mmHg 74%
    07:00 +15°C° 0 mm 2 mps 699 mmHg 69%
    08:00 +17°C° 0 mm 2 mps 699 mmHg 64%
    09:00 +19°C° 0 mm 3 mps 699 mmHg 61%
    10:00 +21°C° 0 mm 3 mps 699 mmHg 58%
    11:00 +22°C° 0 mm 3 mps 699 mmHg 55%
    12:00 +25°C° 0 mm 4 mps 699 mmHg 50%
    13:00 +26°C° 0 mm 6 mps 699 mmHg 46%
    14:00 +28°C° 0 mm 7 mps 698 mmHg 41%
    15:00 +27°C° 0 mm 7 mps 698 mmHg 43%
    16:00 +26°C° 0 mm 6 mps 697 mmHg 44%
    17:00 +24°C° 0 mm 6 mps 697 mmHg 45%
    18:00 +21°C° 0 mm 5 mps 696 mmHg 52%
    19:00 +19°C° 0 mm 4 mps 696 mmHg 59%
    20:00 +16°C° 0 mm 3 mps 696 mmHg 66%
    21:00 +15°C° 0 mm 2 mps 696 mmHg 69%
    22:00 +14°C° 0 mm 2 mps 696 mmHg 73%
    23:00 +13°C° 0 mm 1 mps 696 mmHg 77%

    29 May, Wednesday

    Time Temperature Precipitation Wind Pressure Humidity
    00:00 +13°C° 0 mm 1 mps 696 mmHg 77%
    01:00 +13°C° 0 mm 1 mps 696 mmHg 77%
    02:00 +13°C° 0 mm 1 mps 696 mmHg 77%
    03:00 +13°C° 0 mm 1 mps 696 mmHg 78%
    04:00 +13°C° 0 mm 1 mps 697 mmHg 79%
    05:00 +13°C° 0 mm 1 mps 697 mmHg 79%
    06:00 +15°C° 0 mm 1 mps 697 mmHg 74%
    07:00 +18°C° 0 mm 1 mps 698 mmHg 68%
    08:00 +20°C° 0 mm 1 mps 699 mmHg 63%
    09:00 +21°C° 0 mm 1 mps 699 mmHg 60%
    10:00 +23°C° 0 mm 1 mps 699 mmHg 57%
    11:00 +24°C° 0 mm 2 mps 699 mmHg 54%
    12:00 +25°C° 0.2 mm 1 mps 699 mmHg 52%
    13:00 +26°C° 0.2 mm 1 mps 699 mmHg 49%
    14:00 +26°C° 0.2 mm 1 mps 699 mmHg 47%
    15:00 +26°C° 0.1 mm 1 mps 699 mmHg 48%
    16:00 +26°C° 0.1 mm 1 mps 699 mmHg 49%
    17:00 +26°C° 0.1 mm 1 mps 699 mmHg 49%
    18:00 +24°C° 0.2 mm 1 mps 699 mmHg 56%
    19:00 +22°C° 0.2 mm 1 mps 699 mmHg 63%
    20:00 +20°C° 0.2 mm 1 mps 699 mmHg 70%
    21:00 +19°C° 0.4 mm 1 mps 699 mmHg 73%
    22:00 +18°C° 0.4 mm 1 mps 700 mmHg 77%
    23:00 +16°C° 0.4 mm 1 mps 700 mmHg 80%

    30 May, Thursday

    Time Temperature Precipitation Wind Pressure Humidity
    00:00 +16°C° 0.2 mm 1 mps 700 mmHg 81%
    01:00 +16°C° 0.2 mm 2 mps 700 mmHg 82%
    02:00 +16°C° 0.2 mm 2 mps 700 mmHg 82%
    03:00 +15°C° 0 mm 2 mps 700 mmHg 82%
    04:00 +15°C° 0 mm 2 mps 700 mmHg 82%
    05:00 +15°C° 0 mm 2 mps 700 mmHg 82%
    06:00 +17°C° 0 mm 2 mps 701 mmHg 76%
    07:00 +18°C° 0 mm 2 mps 701 mmHg 70%
    08:00 +20°C° 0 mm 2 mps 702 mmHg 63%
    09:00 +21°C° 0 mm 2 mps 702 mmHg 58%
    10:00 +23°C° 0 mm 2 mps 702 mmHg 53%
    11:00 +25°C° 0 mm 2 mps 702 mmHg 47%
    12:00 +25°C° 0 mm 2 mps 702 mmHg 47%
    13:00 +26°C° 0 mm 2 mps 702 mmHg 47%
    14:00 +26°C° 0 mm 2 mps 702 mmHg 47%
    15:00 +25°C° 0.7 mm 2 mps 702 mmHg 54%
    16:00 +24°C° 0.7 mm 1 mps 702 mmHg 61%
    17:00 +23°C° 0.7 mm 1 mps 701 mmHg 69%
    18:00 +21°C° 2.7 mm 1 mps 701 mmHg 74%
    19:00 +19°C° 2.7 mm 2 mps 701 mmHg 80%
    20:00 +17°C° 2.7 mm 2 mps 701 mmHg 85%
    21:00 +17°C° 1.6 mm 2 mps 701 mmHg 87%
    22:00 +16°C° 1.6 mm 2 mps 701 mmHg 88%
    23:00 +15°C° 1.6 mm 2 mps 701 mmHg 89%
    Show more